Data for 05/22/2018

Time Sea-Level Adjusted Pressure Absolute Pressure Temperature Relative Humidity Dew Point   
(mb) (inHg) (mb) (inHg) (C) (F) (%) (C) (F)
00:05 1018 30.06 847 25.01 10.5 50.9 77 6.6 43.9
00:10 1018 30.06 848 25.04 10.6 51 76 6.6 43.9
00:15 1018 30.06 848 25.04 10.9 51.5 75 6.6 43.9
00:20 1018 30.06 848 25.04 10.9 51.7 75 6.7 44.1
00:25 1018 30.06 847 25.01 10.9 51.7 76 6.8 44.3
00:30 1018 30.06 847 25.01 10.9 51.5 75 6.7 44.1
00:35 1018 30.06 847 25.01 10.9 51.7 76 6.8 44.2
00:40 1018 30.06 847 25.01 11 51.7 76 6.9 44.4
00:45 1018 30.06 847 25.01 10.9 51.6 76 6.9 44.4
00:50 1018 30.06 847 25.01 10.9 51.5 76 6.8 44.3
00:55 1018 30.06 847 25.01 10.8 51.4 76 6.8 44.2
01:00 1018 30.06 847 25.01 10.8 51.4 76 6.8 44.2
01:05 1018 30.06 847 25.01 10.6 51 78 6.9 44.3
01:10 1018 30.06 847 25.01 10.2 50.4 78 6.6 43.8
01:15 1018 30.06 847 25.01 10.7 51.3 76 6.7 44.1
01:20 1018 30.06 847 25.01 11.1 51.9 74 6.7 44.1
01:25 1018 30.06 847 25.01 11 51.7 76 6.9 44.4
01:30 1018 30.06 847 25.01 10.6 51.2 76 6.6 43.9
01:35 1018 30.06 847 25.01 10.5 50.8 76 6.4 43.5
01:40 1018 30.06 847 25.01 10.3 50.6 76 6.3 43.4
01:45 1018 30.06 847 25.01 10.5 50.9 76 6.5 43.6
01:50 1018 30.06 847 25.01 10.4 50.8 77 6.6 43.9
01:55 1018 30.06 847 25.01 10.2 50.4 78 6.5 43.8
02:00 1018 30.06 847 25.01 10.1 50.3 78 6.4 43.5
02:05 1018 30.06 847 25.01 10.2 50.4 77 6.3 43.4
02:10 1018 30.06 847 25.01 10.3 50.6 76 6.2 43.2
02:15 1018 30.06 847 25.01 10.5 50.8 75 6.3 43.3
02:20 1018 30.06 847 25.01 10.4 50.8 76 6.4 43.5
02:25 1018 30.06 847 25.01 10.5 50.9 76 6.5 43.6
02:30 1018 30.06 847 25.01 10.3 50.5 78 6.5 43.8
02:35 1018 30.06 847 25.01 10 50 79 6.5 43.6
02:40 1018 30.06 847 25.01 9.9 49.7 80 6.5 43.7
02:45 1018 30.06 847 25.01 9.7 49.5 80 6.4 43.5
02:50 1018 30.06 847 25.01 9.6 49.3 80 6.3 43.4
02:55 1018 30.06 847 25.01 9.6 49.3 80 6.3 43.3
03:00 1018 30.06 847 25.01 9.6 49.2 80 6.4 43.5
03:05 1018 30.06 847 25.01 9.6 49.2 80 6.3 43.3
03:10 1018 30.06 847 25.01 9.5 49.1 80 6.3 43.3
03:15 1018 30.06 847 25.01 9.7 49.4 79 6.3 43.3
03:20 1018 30.06 847 25.01 9.5 49.2 80 6.3 43.4
03:25 1018 30.06 847 25.01 9.2 48.6 82 6.4 43.5
03:30 1018 30.06 847 25.01 9.1 48.5 81 6.1 42.9
03:35 1018 30.06 848 25.04 9.4 48.8 80 6.1 42.9
03:40 1018 30.06 848 25.04 9.3 48.8 80 6.1 43
03:45 1018 30.06 848 25.04 9.2 48.5 82 6.3 43.4
03:50 1018 30.06 848 25.04 9.1 48.3 82 6.2 43.1
03:55 1018 30.06 848 25.04 9 48.1 81 5.9 42.7
04:00 1018 30.06 848 25.04 9 48.2 81 5.9 42.6
04:05 1019 30.09 848 25.04 9 48.2 80 5.8 42.5
04:10 1019 30.09 848 25.04 8.9 48 81 5.9 42.6
04:15 1019 30.09 848 25.04 8.7 47.7 82 5.8 42.5
04:20 1019 30.09 848 25.04 8.7 47.6 83 5.9 42.6
04:25 1018 30.06 848 25.04 8.7 47.6 82 5.8 42.4
04:30 1018 30.06 848 25.04 8.5 47.3 82 5.6 42.1
04:35 1018 30.06 848 25.04 8.4 47.1 83 5.7 42.2
04:40 1018 30.06 848 25.04 8.3 47 83 5.7 42.2
04:45 1018 30.06 848 25.04 8.5 47.2 83 5.7 42.3
04:50 1019 30.09 848 25.04 8.6 47.4 82 5.7 42.3
04:55 1019 30.09 848 25.04 8.6 47.6 82 5.8 42.4
05:00 1019 30.09 848 25.04 8.5 47.3 83 5.8 42.5
05:05 1019 30.09 848 25.04 8.4 47 83 5.7 42.3
05:10 1019 30.09 848 25.04 8.4 47 83 5.7 42.2
05:15 1019 30.09 848 25.04 8.1 46.6 84 5.6 42.1
05:20 1019 30.09 848 25.04 8.2 46.8 82 5.4 41.8
05:25 1019 30.09 848 25.04 8.4 47.2 81 5.5 41.8
05:30 1019 30.09 848 25.04 8.8 47.9 79 5.4 41.7
05:35 1019 30.09 848 25.04 9.3 48.7 77 5.4 41.7
05:40 1019 30.09 848 25.04 9.3 48.8 77 5.6 42
05:45 1019 30.09 848 25.04 9.3 48.7 77 5.5 41.9
05:50 1019 30.09 848 25.04 9.3 48.8 77 5.5 41.9
05:55 1019 30.09 848 25.04 9.6 49.3 76 5.6 42
06:00 1019 30.09 848 25.04 10.1 50.1 74 5.7 42.3
06:05 1019 30.09 848 25.04 10.4 50.8 73 5.8 42.5
06:10 1019 30.09 848 25.04 10.6 51 74 6.2 43.1
06:15 1019 30.09 848 25.04 10.7 51.2 73 6.2 43.1
06:20 1019 30.09 848 25.04 10.9 51.6 73 6.3 43.4
06:25 1019 30.09 848 25.04 10.7 51.2 75 6.4 43.5
06:30 1019 30.09 848 25.04 10.2 50.3 77 6.3 43.3
06:35 1019 30.09 848 25.04 9.9 49.8 77 6.1 43
06:40 1019 30.09 848 25.04 9.9 49.8 78 6.2 43.1
06:45 1019 30.09 848 25.04 9.9 49.8 77 6 42.9
06:50 1019 30.09 848 25.04 10 50 77 6.2 43.2
06:55 1019 30.09 848 25.04 10 50.1 77 6.3 43.3
07:00 1019 30.09 848 25.04 10 50.1 78 6.4 43.5
07:05 1019 30.09 848 25.04 10.1 50.2 78 6.4 43.5
07:10 1019 30.09 848 25.04 10.2 50.4 77 6.4 43.6
07:15 1019 30.09 848 25.04 10.6 51 76 6.5 43.8
07:20 1019 30.09 848 25.04 11.3 52.3 73 6.7 44.1
07:25 1019 30.09 848 25.04 12.2 54 69 6.8 44.2
07:30 1019 30.09 848 25.04 13.4 56 68 7.6 45.6
07:35 1019 30.09 849 25.07 14.1 57.4 63 7.3 45.1
07:40 1019 30.09 849 25.07 14.9 58.8 58 6.7 44.1
07:45 1019 30.09 849 25.07 15.3 59.5 59 7.3 45.1
07:50 1019 30.09 849 25.07 15.2 59.4 59 7.4 45.3
07:55 1019 30.09 849 25.07 14.5 58 61 7.1 44.8
08:00 1019 30.09 849 25.07 14.4 58 60 6.9 44.3
08:05 1019 30.09 849 25.07 14.7 58.4 61 7.3 45.1
08:10 1019 30.09 849 25.07 14.2 57.5 61 6.9 44.4
08:15 1019 30.09 849 25.07 14 57.1 62 6.8 44.3
08:20 1019 30.09 849 25.07 14.1 57.3 63 7.1 44.8
08:25 1019 30.09 849 25.07 14.2 57.5 62 7.1 44.8
08:30 1019 30.09 848 25.04 14.5 58.1 61 7.1 44.7
08:35 1019 30.09 848 25.04 14.5 58.1 62 7.4 45.3
08:40 1019 30.09 848 25.04 14.4 57.8 62 7.2 45
08:45 1019 30.09 849 25.07 14.6 58.3 60 7 44.6
08:50 1019 30.09 849 25.07 15.4 59.7 58 7.1 44.8
08:55 1019 30.09 848 25.04 15.8 60.4 57 7.4 45.3
09:00 1019 30.09 848 25.04 16.2 61.2 56 7.5 45.5
09:05 1019 30.09 848 25.04 15.5 59.9 57 7.1 44.7
09:10 1019 30.09 848 25.04 15.6 60.2 57 7.3 45.2
09:15 1019 30.09 848 25.04 16.1 60.9 55 7.1 44.7
09:20 1019 30.09 848 25.04 15.8 60.5 58 7.7 45.9
09:25 1019 30.09 848 25.04 15.6 60 58 7.3 45.2
09:30 1019 30.09 848 25.04 16.7 62 54 7.4 45.3
09:35 1019 30.09 848 25.04 17.2 62.9 53 7.6 45.6
09:40 1019 30.09 848 25.04 16.4 61.5 56 7.8 46
09:45 1019 30.09 848 25.04 16.3 61.3 54 7.1 44.8
09:50 1019 30.09 848 25.04 17.3 63.1 52 7.5 45.5
09:55 1019 30.09 848 25.04 17.8 64 50 7.3 45.1
10:00 1019 30.09 848 25.04 17.3 63.1 51 7.3 45.1
10:05 1019 30.09 848 25.04 18.1 64.5 51 7.8 46
10:10 1019 30.09 848 25.04 17.8 64 51 7.7 45.8
10:15 1019 30.09 848 25.04 18.4 65 50 7.9 46.2
10:20 1019 30.09 848 25.04 18.2 64.8 50 7.6 45.7
10:25 1019 30.09 848 25.04 18 64.4 54 8.6 47.4
10:30 1019 30.09 848 25.04 17.3 63.1 54 8.1 46.5
10:35 1019 30.09 848 25.04 18 64.3 50 7.4 45.3
10:40 1019 30.09 848 25.04 18.3 65 51 8 46.5
10:45 1019 30.09 848 25.04 18.5 65.3 47 7.2 45
10:50 1019 30.09 848 25.04 19.3 66.7 50 8.7 47.7
10:55 1018 30.06 848 25.04 18.1 64.5 51 8 46.4
11:00 1018 30.06 848 25.04 18.6 65.4 47 7.2 45
11:05 1018 30.06 847 25.01 18.5 65.3 51 8.2 46.7
11:10 1018 30.06 847 25.01 19.1 66.3 48 8 46.4
11:15 1018 30.06 847 25.01 18.6 65.5 49 7.9 46.2
11:20 1018 30.06 847 25.01 19.3 66.7 49 8.4 47.2
11:25 1018 30.06 847 25.01 19.1 66.3 48 8 46.4
11:30 1018 30.06 847 25.01 19.5 67.1 47 8 46.4
11:35 1018 30.06 847 25.01 19.3 66.8 46 7.6 45.6
11:40 1018 30.06 847 25.01 19.6 67.2 47 8 46.5
11:45 1018 30.06 847 25.01 19.2 66.5 50 8.6 47.5
11:50 1018 30.06 847 25.01 19.4 67 47 8 46.5
11:55 1018 30.06 847 25.01 19.8 67.7 48 8.6 47.6
12:00 1018 30.06 847 25.01 19.3 66.8 52 9.4 48.8
12:05 1018 30.06 847 25.01 19.2 66.5 50 8.5 47.4
12:10 1018 30.06 847 25.01 19.8 67.6 47 8.3 47
12:15 1018 30.06 847 25.01 20.1 68.2 48 9 48.2
12:20 1018 30.06 847 25.01 19.8 67.6 49 8.8 47.9
12:25 1018 30.06 847 25.01 19.6 67.3 49 8.9 48
12:30 1018 30.06 847 25.01 19.3 66.7 49 8.4 47.2
12:35 1017 30.03 847 25.01 19.4 66.8 51 9.2 48.5
12:40 1017 30.03 847 25.01 19 66.2 52 8.9 48.1
12:45 1017 30.03 847 25.01 19.1 66.3 50 8.6 47.5
12:50 1017 30.03 846 24.98 19.4 66.8 50 8.9 48
12:55 1017 30.03 846 24.98 18.6 65.5 53 8.9 48.1
13:00 1017 30.03 846 24.98 19.2 66.6 50 8.7 47.6
13:05 1017 30.03 846 24.98 19.7 67.4 51 9.3 48.7
13:10 1017 30.03 846 24.98 19.7 67.5 49 8.8 47.8
13:15 1017 30.03 846 24.98 20.1 68.3 48 8.9 48
13:20 1017 30.03 846 24.98 20.6 69.2 44 7.9 46.3
13:25 1017 30.03 846 24.98 21.2 70.1 44 8.6 47.5
13:30 1017 30.03 846 24.98 21.2 70.1 43 8.1 46.7
13:35 1017 30.03 846 24.98 20.3 68.5 48 9.2 48.5
13:40 1017 30.03 846 24.98 20.2 68.3 44 7.8 46.1
13:45 1017 30.03 846 24.98 21.2 70.2 42 7.9 46.2
13:50 1017 30.03 846 24.98 21.7 71.1 40 7.8 46
13:55 1017 30.03 846 24.98 21.4 70.4 41 7.9 46.2
14:00 1017 30.03 846 24.98 20.2 68.3 40 6.4 43.4
14:05 1017 30.03 846 24.98 20.1 68.2 40 6.1 43
14:10 1017 30.03 846 24.98 19.4 66.9 41 6 42.7
14:15 1017 30.03 846 24.98 19.4 66.9 43 6.6 43.8
14:20 1017 30.03 846 24.98 19.2 66.6 44 6.8 44.3
14:25 1017 30.03 846 24.98 19 66.2 47 7.7 45.9
14:30 1016 30 846 24.98 18.7 65.7 50 8.1 46.5
14:35 1016 30 846 24.98 18.3 64.9 51 8.2 46.8
14:40 1016 30 846 24.98 18.1 64.6 52 8.2 46.7
14:45 1016 30 846 24.98 18 64.5 51 8 46.3
14:50 1016 30 846 24.98 17.9 64.3 52 8.1 46.6
14:55 1017 30.03 846 24.98 17.9 64.1 53 8.2 46.8
15:00 1017 30.03 846 24.98 17.9 64.2 50 7.6 45.6
15:05 1017 30.03 846 24.98 17.7 63.9 52 7.9 46.2
15:10 1017 30.03 846 24.98 17.5 63.6 55 8.4 47.1
15:15 1017 30.03 846 24.98 17.1 62.9 56 8.4 47.1
15:20 1017 30.03 846 24.98 17.1 62.8 56 8.4 47.2
15:25 1017 30.03 846 24.98 17 62.6 59 9 48.2
15:30 1017 30.03 846 24.98 16.8 62.2 58 8.6 47.5
15:35 1017 30.03 846 24.98 16.8 62.3 58 8.6 47.4
15:40 1017 30.03 846 24.98 17.1 62.8 56 8.3 46.9
15:45 1017 30.03 846 24.98 16.5 61.7 58 8.2 46.8
15:50 1017 30.03 846 24.98 15.9 60.6 59 8 46.3
15:55 1017 30.03 846 24.98 15.7 60.3 59 7.8 46
16:00 1017 30.03 846 24.98 16 60.8 56 7.2 45
16:05 1017 30.03 846 24.98 16.4 61.6 54 7.2 44.9
16:10 1017 30.03 846 24.98 17.2 63 53 7.6 45.7
16:15 1017 30.03 847 25.01 16.8 62.2 55 7.8 46.1
16:20 1017 30.03 847 25.01 16.6 61.9 55 7.5 45.5
16:25 1017 30.03 847 25.01 16.6 61.9 54 7.4 45.3
16:30 1017 30.03 847 25.01 16.8 62.3 53 7.4 45.3
16:35 1017 30.03 846 24.98 17.2 62.9 51 7.1 44.7
16:40 1017 30.03 846 24.98 16.9 62.4 52 7 44.6
16:45 1017 30.03 846 24.98 16.3 61.3 53 6.8 44.3
16:50 1017 30.03 846 24.98 16.1 60.9 52 6.4 43.6
16:55 1017 30.03 846 24.98 16.3 61.3 52 6.6 43.8
17:00 1017 30.03 846 24.98 16.6 62 50 6.4 43.5
17:05 1017 30.03 846 24.98 16.6 61.8 51 6.5 43.7
17:10 1017 30.03 847 25.01 16.8 62.2 51 6.7 44
17:15 1017 30.03 847 25.01 16.7 62 53 7 44.6
17:20 1017 30.03 847 25.01 16.5 61.7 53 6.9 44.4
17:25 1017 30.03 847 25.01 16.3 61.3 54 7 44.6
17:30 1017 30.03 847 25.01 15.9 60.6 56 7.1 44.8
17:35 1018 30.06 847 25.01 15.6 60.1 56 7 44.7
17:40 1018 30.06 847 25.01 15.1 59.1 61 7.8 46
17:45 1018 30.06 847 25.01 14.4 57.8 64 7.7 45.9
17:50 1018 30.06 847 25.01 14 57.2 67 8 46.4
17:55 1018 30.06 847 25.01 13.9 56.9 68 8.1 46.6
18:00 1018 30.06 847 25.01 13.9 57 67 7.9 46.3
18:05 1018 30.06 847 25.01 13.9 57.1 66 7.7 45.8
18:10 1018 30.06 847 25.01 14 57.1 65 7.5 45.5
18:15 1018 30.06 847 25.01 14 57.1 66 7.8 46
18:20 1018 30.06 847 25.01 14 57.1 66 7.8 46
18:25 1018 30.06 847 25.01 13.9 56.9 68 8.1 46.5
18:30 1018 30.06 847 25.01 13.9 57 68 8.2 46.7
18:35 1018 30.06 847 25.01 13.7 56.6 68 8 46.4
18:40 1018 30.06 847 25.01 13.7 56.6 69 8.1 46.6
18:45 1018 30.06 847 25.01 13.6 56.5 68 7.9 46.3
18:50 1018 30.06 847 25.01 13.6 56.4 67 7.6 45.7
18:55 1018 30.06 848 25.04 13.6 56.6 67 7.7 45.9
19:00 1018 30.06 848 25.04 13.8 56.8 64 7.2 44.9
19:05 1018 30.06 848 25.04 13.8 56.9 72 8.9 47.9
19:10 1018 30.06 848 25.04 13.2 55.7 72 8.3 47
19:15 1018 30.06 848 25.04 13.3 55.9 72 8.3 46.9
19:20 1018 30.06 848 25.04 13.4 56 73 8.6 47.5
19:25 1018 30.06 848 25.04 13.1 55.7 74 8.6 47.5
19:30 1019 30.09 848 25.04 13.2 55.7 74 8.8 47.8
19:35 1019 30.09 848 25.04 13.1 55.5 76 8.9 48.1
19:40 1019 30.09 848 25.04 12.8 55 79 9.1 48.5
19:45 1019 30.09 848 25.04 12.4 54.3 82 9.4 48.9
19:50 1019 30.09 848 25.04 12.1 53.7 84 9.4 48.9
19:55 1019 30.09 848 25.04 11.9 53.3 83 9.1 48.3
20:00 1019 30.09 848 25.04 11.8 53.2 85 9.4 48.9
20:05 1019 30.09 848 25.04 11.8 53.2 85 9.3 48.7
20:10 1019 30.09 848 25.04 11.8 53.2 85 9.3 48.7
20:15 1018 30.06 848 25.04 11.7 53 86 9.4 48.8
20:20 1018 30.06 848 25.04 11.6 52.8 87 9.4 49
20:25 1018 30.06 848 25.04 11.4 52.6 87 9.3 48.8
20:30 1018 30.06 848 25.04 11.4 52.5 86 9.2 48.5
20:35 1018 30.06 848 25.04 11.4 52.5 85 8.9 48.1
20:40 1018 30.06 847 25.01 11.3 52.4 85 9 48.1
20:45 1018 30.06 847 25.01 11.2 52.2 86 9 48.1
20:50 1018 30.06 847 25.01 11.3 52.4 83 8.6 47.4
20:55 1018 30.06 847 25.01 11.6 52.8 82 8.7 47.6
21:00 1018 30.06 847 25.01 11.7 53 82 8.7 47.6
21:05 1018 30.06 847 25.01 11.7 53 83 8.8 47.9
21:10 1018 30.06 847 25.01 11.7 53 82 8.8 47.8
21:15 1018 30.06 847 25.01 11.6 52.9 84 9 48.1
21:20 1018 30.06 847 25.01 11.6 52.9 83 8.8 47.8
21:25 1018 30.06 847 25.01 11.6 52.9 83 8.8 47.9
21:30 1018 30.06 847 25.01 11.6 52.9 83 8.8 47.8
21:35 1018 30.06 847 25.01 11.6 52.8 82 8.7 47.6
21:40 1018 30.06 847 25.01 11.7 53 82 8.7 47.6
21:45 1018 30.06 847 25.01 11.7 53.1 81 8.6 47.5
21:50 1018 30.06 847 25.01 11.8 53.2 82 8.8 47.9
21:55 1018 30.06 847 25.01 11.7 53.1 82 8.8 47.8
22:00 1018 30.06 847 25.01 11.8 53.2 81 8.6 47.5
22:05 1018 30.06 847 25.01 11.8 53.2 81 8.7 47.6
22:10 1018 30.06 847 25.01 11.8 53.2 81 8.6 47.6
22:15 1018 30.06 847 25.01 11.8 53.3 80 8.5 47.3
22:20 1018 30.06 847 25.01 11.8 53.3 80 8.5 47.3
22:25 1017 30.03 847 25.01 11.9 53.4 79 8.5 47.2
22:30 1017 30.03 847 25.01 11.9 53.4 79 8.3 47
22:35 1017 30.03 847 25.01 11.9 53.5 79 8.4 47.1
22:40 1017 30.03 847 25.01 11.9 53.5 78 8.2 46.8
22:45 1017 30.03 847 25.01 11.9 53.4 79 8.4 47.1
22:50 1017 30.03 847 25.01 11.8 53.3 79 8.4 47.1
22:55 1017 30.03 847 25.01 11.8 53.2 79 8.4 47.1
23:00 1017 30.03 847 25.01 11.8 53.2 80 8.4 47.1
23:05 1017 30.03 847 25.01 11.7 53.1 80 8.3 47
23:10 1017 30.03 847 25.01 11.8 53.2 79 8.2 46.8
23:15 1017 30.03 847 25.01 11.8 53.2 79 8.2 46.8
23:20 1017 30.03 847 25.01 11.8 53.2 79 8.3 46.9
23:25 1017 30.03 847 25.01 11.8 53.2 78 8.1 46.6
23:30 1017 30.03 847 25.01 11.8 53.3 78 8.2 46.8
23:35 1017 30.03 847 25.01 11.8 53.3 78 8.2 46.8
23:40 1017 30.03 847 25.01 11.8 53.3 78 8.2 46.8
23:45 1017 30.03 847 25.01 11.9 53.4 78 8.3 46.9
23:50 1017 30.03 846 24.98 11.8 53.3 79 8.3 46.9
23:55 1017 30.03 846 24.98 11.8 53.3 79 8.3 47
24:00 1017 30.03 846 24.98 11.8 53.2 79 8.3 46.9